KC5DAQ-28 Weather Reports


Display with metric or nautical units.
time (UTC)temp
F
wind
direction
speed
MPH
gust
MPH
rain 1hr
in
rain 24hr
in
rain mn
in
humidity
%
barometer
mb
20260503013602 70 16 1.0 3.0 0.00 0.01 0.00 63 1013.3
20260503013504 70 16 1.0 3.0 0.00 0.01 0.00 62 1013.3
20260503013403 70 16 2.0 3.0 0.00 0.01 0.00 62 1013.2
20260503013304 70 16 2.0 3.0 0.00 0.01 0.00 62 1013.3
20260503013203 70 16 2.0 3.0 0.00 0.01 0.00 62 1013.3
20260503013103 70 16 2.0 3.0 0.00 0.02 0.00 62 1013.3
20260503013003 70 16 2.0 3.0 0.00 0.02 0.00 62 1013.3
20260503012905 70 16 2.0 3.0 0.00 0.02 0.00 62 1013.3
20260503012802 70 16 2.0 3.0 0.00 0.02 0.00 62 1013.3
20260503012703 70 16 2.0 3.0 0.00 0.02 0.00 62 1013.2
20260503012604 70 16 2.0 3.0 0.00 0.02 0.00 62 1013.2
20260503012502 70 16 2.0 3.0 0.00 0.02 0.00 61 1013.3
20260503012403 70 16 2.0 3.0 0.00 0.02 0.00 61 1013.2
20260503012305 70 16 2.0 3.0 0.00 0.02 0.00 61 1013.2
20260503012204 70 16 2.0 3.0 0.00 0.02 0.00 61 1013.2
20260503012103 70 16 2.0 2.0 0.00 0.02 0.00 61 1013.2
20260503012003 70 16 2.0 2.0 0.00 0.02 0.00 61 1013.2
20260503011904 70 16 2.0 2.0 0.00 0.02 0.00 61 1013.2
20260503011803 71 16 2.0 3.0 0.00 0.02 0.00 61 1013.2
20260503011704 71 16 2.0 3.0 0.00 0.02 0.00 61 1013.1
20260503011604 71 16 2.0 3.0 0.00 0.02 0.00 61 1013.2
20260503011503 71 16 2.0 3.0 0.00 0.02 0.00 61 1013.1
20260503011404 71 16 2.0 3.0 0.00 0.02 0.00 61 1013.2
20260503011302 71 16 2.0 3.0 0.00 0.02 0.00 61 1013.2
20260503011204 71 16 2.0 3.0 0.00 0.02 0.00 61 1013.2
20260503011103 71 16 2.0 3.0 0.00 0.02 0.00 61 1013.1
20260503011003 71 16 2.0 3.0 0.00 0.02 0.00 61 1013.0
20260503010903 71 16 2.0 3.0 0.00 0.02 0.00 63 1013.1
20260503010802 71 16 1.0 3.0 0.00 0.02 0.00 63 1013.0
20260503010703 71 17 1.0 3.0 0.00 0.02 0.00 63 1013.1
20260503010603 71 17 1.0 3.0 0.00 0.02 0.00 63 1012.9
20260503010502 71 17 2.0 3.0 0.00 0.02 0.00 61 1013.0
20260503010402 71 16 2.0 3.0 0.00 0.02 0.00 61 1013.0
20260503010303 71 17 2.0 3.0 0.00 0.02 0.00 62 1013.0
20260503010203 71 18 2.0 3.0 0.00 0.03 0.00 62 1013.1
20260503010003 71 18 1.0 3.0 0.00 0.03 0.00 61 1013.0
20260503005904 71 18 2.0 3.0 0.00 0.03 0.00 61 1013.0
20260503005802 71 18 2.0 3.0 0.00 0.03 0.00 61 1013.1
20260503005704 71 18 2.0 3.0 0.00 0.03 0.00 61 1013.1
20260503005603 71 18 2.0 3.0 0.00 0.03 0.00 61 1013.0
20260503005502 72 18 2.0 3.0 0.00 0.03 0.00 60 1013.1
20260503005403 72 18 2.0 4.0 0.00 0.03 0.00 61 1013.0
20260503005304 72 18 2.0 4.0 0.00 0.03 0.00 61 1013.0
20260503005205 72 18 2.0 4.0 0.00 0.03 0.00 61 1012.9
20260503005103 72 18 1.0 4.0 0.00 0.03 0.00 61 1013.0
20260503005002 72 18 1.0 4.0 0.00 0.03 0.00 61 1013.0
20260503004901 72 18 2.0 5.0 0.00 0.03 0.00 59 1013.0
20260503004804 72 18 2.0 5.0 0.00 0.03 0.00 60 1013.0
20260503004702 72 0 2.0 5.0 0.00 0.03 0.00 60 1012.9
20260503004602 72 0 2.0 5.0 0.00 0.03 0.00 58 1012.9
20260503004504 72 0 2.0 5.0 0.00 0.03 0.00 58 1012.9
20260503004404 72 0 3.0 5.0 0.00 0.03 0.00 59 1012.9
20260503004303 73 0 3.0 5.0 0.00 0.03 0.00 57 1012.9
20260503004202 73 0 3.0 5.0 0.00 0.03 0.00 58 1012.9
20260503004103 73 0 4.0 5.0 0.00 0.03 0.00 58 1012.8
20260503004004 73 358 4.0 5.0 0.00 0.03 0.00 58 1012.8
20260503003902 73 0 3.0 6.0 0.00 0.03 0.00 58 1012.8
20260503003802 73 0 4.0 6.0 0.00 0.03 0.00 57 1012.7
20260503003701 73 0 4.0 6.0 0.00 0.03 0.00 57 1012.7
20260503003603 73 0 4.0 6.0 0.00 0.03 0.00 57 1012.7
20260503003504 73 0 3.0 6.0 0.00 0.03 0.00 57 1012.7
20260503003402 73 357 3.0 6.0 0.00 0.03 0.00 57 1012.6
20260503003302 73 0 4.0 7.0 0.00 0.03 0.00 56 1012.6
20260503003203 73 348 4.0 7.0 0.00 0.03 0.00 56 1012.6
20260503003103 73 333 5.0 7.0 0.00 0.03 0.00 55 1012.6
20260503003003 73 355 5.0 7.0 0.00 0.03 0.00 55 1012.7
20260503002902 73 358 4.0 10.0 0.00 0.03 0.00 55 1012.6
20260503002804 73 350 4.0 10.0 0.00 0.03 0.00 56 1012.6
20260503002703 73 0 4.0 10.0 0.00 0.03 0.00 55 1012.6
20260503002604 73 0 4.0 10.0 0.00 0.03 0.00 55 1012.6
20260503002503 73 17 5.0 10.0 0.00 0.03 0.00 55 1012.6
20260503002403 73 0 5.0 10.0 0.00 0.03 0.00 55 1012.6
20260503002305 73 8 4.0 10.0 0.00 0.03 0.00 56 1012.6
20260503002202 73 1 5.0 10.0 0.00 0.03 0.00 55 1012.6
20260503002103 73 357 7.0 10.0 0.00 0.03 0.00 54 1012.6
20260503002003 73 358 7.0 10.0 0.00 0.04 0.00 54 1012.6
20260503001903 73 347 6.0 9.0 0.00 0.04 0.00 55 1012.6
20260503001805 74 340 5.0 9.0 0.00 0.04 0.00 55 1012.6
20260503001705 74 354 5.0 9.0 0.00 0.04 0.00 54 1012.6
20260503001603 74 333 5.0 9.0 0.00 0.04 0.00 55 1012.5
20260503001504 74 8 6.0 9.0 0.00 0.04 0.00 55 1012.6
20260503001404 74 350 6.0 11.0 0.00 0.04 0.00 55 1012.6
20260503001302 74 0 4.0 11.0 0.00 0.04 0.00 55 1012.6
20260503001204 74 0 4.0 11.0 0.00 0.04 0.00 56 1012.6
20260503001103 74 338 4.0 11.0 0.00 0.04 0.00 55 1012.6
20260503001002 74 20 4.0 11.0 0.00 0.04 0.00 54 1012.6
20260503000901 74 1 5.0 11.0 0.00 0.04 0.00 53 1012.6
20260503000804 74 18 4.0 11.0 0.00 0.04 0.00 54 1012.6
20260503000703 74 17 4.0 11.0 0.00 0.04 0.00 54 1012.5
20260503000604 74 10 6.0 11.0 0.00 0.04 0.00 53 1012.6
20260503000503 74 351 6.0 11.0 0.00 0.04 0.00 54 1012.6
20260503000403 74 355 6.0 11.0 0.00 0.04 0.00 53 1012.5
20260503000303 74 4 6.0 11.0 0.00 0.04 0.00 53 1012.5
20260503000204 74 0 6.0 11.0 0.00 0.04 0.00 54 1012.5
20260503000003 74 357 6.0 11.0 0.00 0.04 0.00 54 1012.4
20260502235903 74 347 5.0 11.0 0.00 0.04 0.00 54 1012.5
20260502235802 74 358 5.0 11.0 0.00 0.04 0.00 54 1012.4
20260502235702 74 351 5.0 11.0 0.00 0.04 0.00 55 1012.5
20260502235603 74 0 7.0 11.0 0.00 0.04 0.00 53 1012.5
20260502235503 74 347 7.0 11.0 0.00 0.04 0.00 53 1012.5
20260502235404 74 331 5.0 10.0 0.00 0.04 0.00 54 1012.4
20260502235304 74 350 4.0 10.0 0.00 0.04 0.00 54 1012.4
20260502235203 74 327 4.0 10.0 0.00 0.04 0.00 55 1012.4
20260502235102 74 351 4.0 10.0 0.00 0.04 0.00 53 1012.4
20260502235004 74 329 6.0 12.0 0.00 0.04 0.00 53 1012.5
20260502234904 74 338 6.0 12.0 0.00 0.04 0.00 53 1012.4
20260502234802 74 353 6.0 12.0 0.00 0.04 0.00 53 1012.4
20260502234703 74 345 6.0 12.0 0.00 0.04 0.00 53 1012.4
20260502234604 74 354 6.0 12.0 0.00 0.05 0.00 53 1012.4
20260502234503 74 355 5.0 12.0 0.00 0.05 0.00 53 1012.5
20260502234403 74 0 5.0 12.0 0.00 0.05 0.00 53 1012.4
20260502234302 74 0 7.0 12.0 0.00 0.05 0.00 53 1012.4
20260502234203 74 0 8.0 12.0 0.00 0.05 0.00 53 1012.4
20260502234103 74 344 8.0 12.0 0.00 0.05 0.00 54 1012.5
20260502234002 74 347 6.0 10.0 0.00 0.05 0.00 54 1012.5
20260502233903 74 1 6.0 10.0 0.00 0.05 0.00 54 1012.4
20260502233802 74 341 6.0 9.0 0.00 0.05 0.00 54 1012.4
20260502233703 74 310 6.0 10.0 0.00 0.05 0.00 53 1012.5
20260502233601 74 348 6.0 11.0 0.00 0.05 0.00 54 1012.4
20260502233502 74 336 7.0 11.0 0.00 0.05 0.00 53 1012.4
20260502233402 74 329 7.0 11.0 0.00 0.05 0.00 53 1012.3
20260502233302 74 350 5.0 11.0 0.00 0.05 0.00 53 1012.3
20260502233202 74 0 4.0 11.0 0.00 0.05 0.00 53 1012.4
20260502233103 74 11 4.0 11.0 0.00 0.05 0.00 53 1012.3
20260502233005 74 42 5.0 11.0 0.00 0.05 0.00 52 1012.3
20260502232903 74 10 6.0 11.0 0.00 0.05 0.00 52 1012.4
20260502232803 74 10 8.0 13.0 0.00 0.05 0.00 53 1012.3
20260502232702 74 0 8.0 13.0 0.00 0.05 0.00 53 1012.3
20260502232603 75 338 7.0 13.0 0.00 0.05 0.00 53 1012.3
20260502232502 75 317 6.0 13.0 0.00 0.05 0.00 53 1012.3
20260502232403 75 357 5.0 13.0 0.00 0.05 0.00 53 1012.3
20260502232305 75 347 6.0 13.0 0.00 0.05 0.00 53 1012.4
20260502232203 75 343 7.0 13.0 0.00 0.05 0.00 52 1012.4
20260502232104 75 0 7.0 13.0 0.00 0.05 0.00 52 1012.4
20260502232003 75 344 6.0 13.0 0.00 0.05 0.00 53 1012.4
20260502231905 75 340 6.0 13.0 0.00 0.05 0.00 53 1012.5
20260502231802 75 0 5.0 10.0 0.00 0.05 0.00 53 1012.4
20260502231703 75 1 6.0 10.0 0.00 0.05 0.00 55 1012.3
20260502231603 75 0 5.0 10.0 0.00 0.05 0.00 55 1012.4
20260502231504 75 0 4.0 10.0 0.00 0.05 0.00 54 1012.4
20260502231403 75 344 5.0 10.0 0.00 0.05 0.00 54 1012.4
20260502231303 75 13 5.0 10.0 0.00 0.05 0.00 54 1012.4
20260502231202 75 6 5.0 10.0 0.00 0.05 0.00 53 1012.4
20260502231104 75 347 6.0 10.0 0.00 0.05 0.00 53 1012.4
20260502231004 75 0 6.0 10.0 0.00 0.05 0.00 51 1012.4
20260502230904 75 334 6.0 10.0 0.00 0.05 0.00 51 1012.4
20260502230802 75 340 6.0 10.0 0.00 0.05 0.00 53 1012.3
20260502230704 75 341 5.0 10.0 0.00 0.05 0.00 55 1012.4
20260502230603 75 348 4.0 10.0 0.00 0.05 0.00 53 1012.4
20260502230504 75 344 4.0 10.0 0.00 0.05 0.00 54 1012.3
20260502230403 75 25 4.0 11.0 0.00 0.05 0.00 53 1012.3
20260502230303 75 63 5.0 11.0 0.00 0.05 0.00 52 1012.3
20260502230204 75 76 6.0 11.0 0.00 0.05 0.00 52 1012.3
20260502230003 75 7 5.0 11.0 0.00 0.05 0.00 52 1012.3
20260502225903 75 344 7.0 12.0 0.00 0.05 0.00 52 1012.3
20260502225803 75 344 7.0 12.0 0.00 0.06 0.00 52 1012.4
20260502225703 75 344 7.0 12.0 0.00 0.06 0.00 52 1012.3
20260502225604 75 344 7.0 12.0 0.00 0.06 0.00 52 1012.3
20260502225504 75 344 7.0 12.0 0.00 0.06 0.00 52 1012.3
20260502225403 75 353 6.0 13.0 0.00 0.06 0.00 51 1012.3
20260502225304 75 1 7.0 13.0 0.00 0.06 0.00 51 1012.2
20260502225203 75 68 8.0 15.0 0.00 0.06 0.00 51 1012.3
20260502225104 75 6 8.0 15.0 0.00 0.06 0.00 50 1012.2
20260502225003 75 35 8.0 16.0 0.00 0.06 0.00 52 1012.3
20260502224901 75 11 7.0 16.0 0.00 0.06 0.00 52 1012.2
20260502224804 75 0 8.0 16.0 0.00 0.06 0.00 52 1012.3
20260502224704 75 358 8.0 16.0 0.00 0.06 0.00 52 1012.3
20260502224604 75 0 8.0 16.0 0.00 0.06 0.00 52 1012.2
20260502224504 75 350 9.0 16.0 0.00 0.06 0.00 52 1012.3
20260502224403 75 0 10.0 16.0 0.00 0.06 0.00 52 1012.3
20260502224302 75 340 10.0 16.0 0.00 0.06 0.00 52 1012.3
20260502224202 75 358 11.0 16.0 0.00 0.06 0.00 52 1012.3
20260502224102 75 8 10.0 16.0 0.00 0.06 0.00 52 1012.3
20260502224004 75 331 7.0 12.0 0.00 0.06 0.00 52 1012.2
20260502223903 75 354 7.0 12.0 0.00 0.06 0.00 52 1012.2
20260502223803 75 310 6.0 12.0 0.00 0.06 0.00 53 1012.2
20260502223702 75 6 6.0 12.0 0.00 0.06 0.00 52 1012.2
20260502223603 75 6 7.0 12.0 0.00 0.06 0.00 52 1012.3
20260502223505 74 345 8.0 12.0 0.00 0.06 0.00 51 1012.3
20260502223401 75 344 8.0 12.0 0.00 0.06 0.00 53 1012.3
20260502223304 75 329 9.0 12.0 0.00 0.06 0.00 51 1012.3
20260502223204 75 350 10.0 12.0 0.00 0.06 0.00 51 1012.3
20260502223103 75 341 9.0 12.0 0.00 0.06 0.00 51 1012.3
20260502223004 75 0 8.0 12.0 0.00 0.06 0.00 51 1012.4
20260502222902 75 331 9.0 12.0 0.00 0.06 0.00 51 1012.3
20260502222803 75 334 9.0 12.0 0.00 0.06 0.00 52 1012.2
20260502222705 75 340 8.0 11.0 0.00 0.06 0.00 52 1012.3
20260502222604 75 0 7.0 11.0 0.00 0.06 0.00 52 1012.3
20260502222504 75 23 7.0 12.0 0.00 0.06 0.00 52 1012.4
20260502222402 75 18 7.0 12.0 0.00 0.06 0.00 52 1012.4
20260502222305 75 347 7.0 12.0 0.00 0.06 0.00 52 1012.4
20260502222204 75 21 6.0 12.0 0.00 0.06 0.00 51 1012.4
20260502222102 75 348 6.0 12.0 0.00 0.06 0.00 50 1012.4
20260502222003 75 10 6.0 12.0 0.00 0.06 0.00 50 1012.3
20260502221902 75 35 6.0 12.0 0.00 0.06 0.00 49 1012.3
20260502221803 75 14 6.0 12.0 0.00 0.06 0.00 53 1012.4
20260502221702 75 44 7.0 12.0 0.00 0.06 0.00 53 1012.4
20260502221603 75 351 9.0 12.0 0.00 0.06 0.00 53 1012.3
20260502221502 75 7 8.0 12.0 0.00 0.06 0.00 53 1012.3
20260502221404 75 1 8.0 12.0 0.00 0.06 0.00 53 1012.2
20260502221302 75 343 8.0 12.0 0.00 0.06 0.00 52 1012.3
20260502221202 75 317 6.0 11.0 0.00 0.06 0.00 52 1012.4
20260502221103 75 44 4.0 14.0 0.00 0.06 0.00 52 1012.2
20260502221002 75 348 4.0 14.0 0.00 0.06 0.00 52 1012.2
20260502220902 75 351 6.0 14.0 0.00 0.06 0.00 52 1012.3
20260502220803 75 345 6.0 14.0 0.00 0.06 0.00 52 1012.3
20260502220703 75 18 4.0 14.0 0.00 0.06 0.00 51 1012.4
20260502220603 75 30 4.0 14.0 0.00 0.06 0.00 50 1012.3
20260502220504 75 20 5.0 14.0 0.00 0.06 0.00 51 1012.4
20260502220402 75 21 7.0 14.0 0.00 0.06 0.00 51 1012.4
20260502220303 75 61 8.0 14.0 0.00 0.06 0.00 51 1012.4
20260502220202 75 35 8.0 14.0 0.00 0.06 0.00 53 1012.4
20260502220104 75 6 6.0 12.0 0.00 0.06 0.00 53 1012.5
20260502220004 75 0 6.0 12.0 0.00 0.06 0.00 52 1012.5
20260502215904 75 7 7.0 12.0 0.00 0.06 0.00 52 1012.4
20260502215803 75 0 6.0 13.0 0.00 0.06 0.00 52 1012.5
20260502215703 75 338 6.0 13.0 0.00 0.06 0.00 51 1012.5
20260502215604 75 0 6.0 13.0 0.00 0.06 0.00 51 1012.5
20260502215504 75 8 8.0 13.0 0.00 0.06 0.00 53 1012.5
20260502215403 75 348 8.0 13.0 0.00 0.06 0.00 53 1012.5
20260502215305 75 354 8.0 13.0 0.00 0.06 0.00 53 1012.6
20260502215202 75 350 8.0 13.0 0.00 0.06 0.00 53 1012.5
20260502215103 75 0 8.0 13.0 0.00 0.06 0.00 53 1012.5
20260502215004 75 345 8.0 13.0 0.00 0.06 0.00 53 1012.5
20260502214903 75 337 7.0 13.0 0.00 0.06 0.00 53 1012.4
20260502214802 74 358 6.0 13.0 0.00 0.06 0.00 53 1012.4
20260502214702 74 3 6.0 15.0 0.00 0.06 0.00 52 1012.5
20260502214603 74 21 6.0 15.0 0.00 0.06 0.00 52 1012.4
20260502214502 74 355 7.0 15.0 0.00 0.06 0.00 52 1012.4
20260502214403 74 0 9.0 15.0 0.00 0.06 0.00 53 1012.5
20260502214303 74 354 8.0 15.0 0.00 0.06 0.00 53 1012.5
20260502214204 74 345 5.0 15.0 0.00 0.06 0.00 53 1012.4
20260502214104 74 0 7.0 15.0 0.00 0.06 0.00 50 1012.4
20260502214002 74 350 9.0 15.0 0.00 0.06 0.00 51 1012.4
20260502213903 74 357 10.0 15.0 0.00 0.06 0.00 51 1012.5
20260502213802 74 353 11.0 15.0 0.00 0.06 0.00 51 1012.5
20260502213704 74 350 11.0 15.0 0.00 0.06 0.00 54 1012.5
20260502213602 74 326 11.0 15.0 0.00 0.06 0.00 53 1012.6
20260502213504 74 341 12.0 15.0 0.00 0.06 0.00 53 1012.6
20260502213404 74 0 10.0 15.0 0.00 0.06 0.00 53 1012.6
20260502213304 74 345 7.0 14.0 0.00 0.06 0.00 53 1012.5
20260502213204 74 357 8.0 14.0 0.00 0.06 0.00 53 1012.6
20260502213103 74 336 9.0 14.0 0.00 0.06 0.00 54 1012.7
20260502213003 74 340 10.0 14.0 0.00 0.06 0.00 54 1012.7
20260502212903 74 334 11.0 14.0 0.00 0.06 0.00 53 1012.6
20260502212802 74 305 10.0 14.0 0.00 0.06 0.00 53 1012.7
20260502212702 74 333 8.0 14.0 0.00 0.06 0.00 52 1012.7
20260502212602 74 327 7.0 14.0 0.00 0.06 0.00 56 1012.7
20260502212505 74 321 8.0 14.0 0.00 0.06 0.00 57 1012.7
20260502212402 74 348 9.0 14.0 0.00 0.06 0.00 54 1012.7
20260502212305 74 337 10.0 14.0 0.00 0.06 0.00 54 1012.7
20260502212205 74 347 11.0 14.0 0.00 0.06 0.00 54 1012.8
20260502212102 74 16 8.0 16.0 0.00 0.06 0.00 54 1012.7
20260502212004 74 350 6.0 16.0 0.00 0.06 0.00 54 1012.7
20260502211904 74 18 4.0 16.0 0.00 0.06 0.00 54 1012.6
20260502211804 74 18 4.0 16.0 0.00 0.06 0.00 54 1012.7
20260502211704 74 18 4.0 16.0 0.00 0.06 0.00 54 1012.7
20260502211604 74 18 4.0 16.0 0.00 0.06 0.00 54 1012.7
20260502211504 74 18 4.0 16.0 0.00 0.06 0.00 54 1012.8
20260502211402 74 0 6.0 16.0 0.00 0.07 0.00 52 1012.8
20260502211303 74 317 9.0 16.0 0.00 0.07 0.00 52 1012.8
20260502211203 74 7 10.0 16.0 0.00 0.07 0.00 53 1012.8
20260502211102 74 0 10.0 16.0 0.00 0.07 0.00 53 1012.8
20260502211005 74 0 10.0 16.0 0.00 0.07 0.00 54 1012.8
20260502210903 74 351 12.0 20.0 0.00 0.07 0.00 53 1012.8
20260502210803 74 344 13.0 20.0 0.00 0.07 0.00 53 1012.9
20260502210702 74 344 13.0 20.0 0.00 0.07 0.00 54 1012.8
20260502210603 74 329 11.0 20.0 0.00 0.07 0.00 53 1012.8
20260502210505 74 0 9.0 20.0 0.00 0.07 0.00 53 1012.8
20260502210403 74 333 7.0 20.0 0.00 0.07 0.00 53 1012.8
20260502210303 74 347 7.0 20.0 0.00 0.07 0.00 53 1012.7
20260502210202 74 8 8.0 20.0 0.00 0.07 0.00 54 1012.8
20260502210005 74 10 11.0 20.0 0.00 0.07 0.00 55 1012.8
20260502205902 74 330 9.0 15.0 0.00 0.07 0.00 54 1012.8
20260502205803 74 344 10.0 15.0 0.00 0.07 0.00 54 1012.8
20260502205703 74 341 10.0 15.0 0.00 0.07 0.00 55 1012.9
20260502205605 74 343 8.0 12.0 0.00 0.07 0.00 55 1012.9
20260502205503 74 345 6.0 10.0 0.00 0.07 0.00 55 1012.8
20260502205403 74 338 7.0 11.0 0.00 0.07 0.00 54 1012.9
20260502205305 74 347 8.0 11.0 0.00 0.07 0.00 54 1012.9
20260502205203 74 334 8.0 14.0 0.00 0.07 0.00 55 1012.9
20260502205103 74 326 6.0 14.0 0.00 0.07 0.00 55 1013.0
20260502205002 74 330 6.0 14.0 0.00 0.07 0.00 55 1012.9
20260502204903 73 353 8.0 14.0 0.00 0.07 0.00 52 1013.0
20260502204803 74 340 8.0 14.0 0.00 0.07 0.00 56 1013.0
20260502204703 74 283 7.0 16.0 0.00 0.07 0.00 53 1013.0
20260502204603 74 330 7.0 16.0 0.00 0.07 0.00 55 1013.0
20260502204505 74 329 8.0 16.0 0.00 0.07 0.00 55 1013.1
20260502204402 74 344 8.0 16.0 0.00 0.07 0.00 55 1013.1
20260502204302 74 343 7.0 16.0 0.00 0.07 0.00 55 1013.1
20260502204202 74 333 7.0 16.0 0.00 0.07 0.00 55 1013.1
20260502204103 74 347 7.0 16.0 0.00 0.07 0.00 54 1013.1
20260502204003 74 0 9.0 16.0 0.00 0.07 0.00 56 1013.1
20260502203903 74 341 11.0 16.0 0.00 0.07 0.00 56 1013.1
20260502203802 74 344 11.0 16.0 0.00 0.07 0.00 55 1013.1
20260502203702 74 345 9.0 15.0 0.00 0.07 0.00 56 1013.2
20260502203605 73 329 6.0 13.0 0.00 0.07 0.00 54 1013.1
20260502203504 73 329 6.0 13.0 0.00 0.07 0.00 54 1013.1
20260502203403 73 16 5.0 13.0 0.00 0.07 0.00 55 1013.1
20260502203303 73 348 4.0 15.0 0.00 0.07 0.00 54 1013.1
20260502203202 73 0 4.0 15.0 0.00 0.07 0.00 54 1013.2
20260502203104 73 347 4.0 15.0 0.00 0.07 0.00 54 1013.1
20260502203003 73 0 6.0 15.0 0.00 0.07 0.00 54 1013.2
20260502202903 73 355 8.0 15.0 0.00 0.08 0.00 54 1013.2
20260502202803 73 331 8.0 15.0 0.00 0.08 0.00 54 1013.2
20260502202703 73 341 8.0 15.0 0.00 0.08 0.00 53 1013.1
20260502202602 73 313 9.0 15.0 0.00 0.08 0.00 54 1013.2
20260502202505 73 341 10.0 15.0 0.00 0.08 0.00 54 1013.2
20260502202404 73 0 12.0 15.0 0.00 0.08 0.00 55 1013.3
20260502202304 73 345 11.0 15.0 0.00 0.08 0.00 55 1013.2
20260502202203 73 351 10.0 15.0 0.00 0.08 0.00 56 1013.3
20260502202103 73 330 9.0 15.0 0.00 0.08 0.00 56 1013.3
20260502202005 73 326 8.0 13.0 0.00 0.08 0.00 56 1013.2
20260502201903 73 338 7.0 13.0 0.00 0.08 0.00 55 1013.2
20260502201802 73 323 8.0 13.0 0.00 0.08 0.00 55 1013.2
20260502201703 73 316 7.0 13.0 0.00 0.08 0.00 55 1013.2
20260502201604 73 14 5.0 12.0 0.00 0.08 0.00 55 1013.2
20260502201504 73 27 6.0 12.0 0.00 0.08 0.00 55 1013.3
20260502201402 73 0 4.0 13.0 0.00 0.08 0.00 55 1013.4
20260502201302 73 337 4.0 13.0 0.00 0.08 0.00 56 1013.3
20260502201203 73 345 4.0 13.0 0.00 0.08 0.00 57 1013.3
20260502201103 73 0 4.0 13.0 0.00 0.08 0.00 55 1013.3
20260502201004 73 27 6.0 13.0 0.00 0.08 0.00 56 1013.3
20260502200903 73 11 7.0 13.0 0.00 0.08 0.00 56 1013.4
20260502200803 73 344 9.0 13.0 0.00 0.08 0.00 56 1013.4
20260502200704 73 319 8.0 13.0 0.00 0.08 0.00 56 1013.4
20260502200602 73 319 9.0 14.0 0.00 0.08 0.00 55 1013.5
20260502200505 73 347 9.0 14.0 0.00 0.08 0.00 55 1013.5
20260502200404 73 355 7.0 15.0 0.00 0.08 0.00 54 1013.4
20260502200303 73 0 6.0 15.0 0.00 0.08 0.00 55 1013.5
20260502200203 73 348 6.0 15.0 0.00 0.08 0.00 54 1013.5
20260502200002 73 11 7.0 15.0 0.00 0.08 0.00 54 1013.5
20260502195902 73 23 8.0 15.0 0.00 0.09 0.00 53 1013.6
20260502195804 73 0 9.0 15.0 0.00 0.09 0.00 56 1013.6
20260502195703 73 0 9.0 15.0 0.00 0.09 0.00 55 1013.6
20260502195603 72 13 10.0 15.0 0.00 0.09 0.00 54 1013.6
20260502195503 72 351 10.0 15.0 0.00 0.09 0.00 54 1013.6
20260502195404 72 319 10.0 13.0 0.00 0.09 0.00 54 1013.6
20260502195305 72 326 10.0 13.0 0.00 0.09 0.00 54 1013.5
20260502195202 72 351 10.0 13.0 0.00 0.09 0.00 54 1013.5
20260502195103 72 326 9.0 13.0 0.00 0.09 0.00 54 1013.6
20260502195002 72 343 9.0 13.0 0.00 0.09 0.00 56 1013.6
20260502194904 72 0 6.0 12.0 0.00 0.09 0.00 55 1013.7
20260502194804 72 0 6.0 12.0 0.00 0.09 0.00 55 1013.7
20260502194702 72 18 7.0 14.0 0.00 0.09 0.00 54 1013.6
20260502194602 72 333 7.0 15.0 0.00 0.09 0.00 56 1013.6
20260502194503 72 348 9.0 16.0 0.00 0.09 0.00 56 1013.7
20260502194404 72 351 9.0 16.0 0.00 0.09 0.00 56 1013.7
20260502194302 72 3 9.0 16.0 0.00 0.09 0.00 56 1013.8
20260502194203 72 0 9.0 16.0 0.00 0.09 0.00 54 1013.8
20260502194104 72 357 8.0 16.0 0.00 0.09 0.00 55 1013.7
20260502194004 72 320 8.0 16.0 0.00 0.09 0.00 56 1013.8
20260502193904 73 338 9.0 16.0 0.00 0.09 0.00 56 1013.8
20260502193803 73 357 11.0 16.0 0.00 0.09 0.00 55 1013.8
20260502193703 73 0 12.0 16.0 0.00 0.09 0.00 57 1013.8
20260502193602 73 358 11.0 16.0 0.00 0.09 0.00 57 1014.0
20260502193505 73 0 9.0 14.0 0.00 0.09 0.00 56 1013.9
20260502193403 73 20 6.0 14.0 0.00 0.09 0.00 59 1013.8
20260502193302 73 350 6.0 13.0 0.00 0.09 0.00 59 1013.8
20260502193203 73 354 7.0 13.0 0.00 0.09 0.00 56 1013.8
20260502193104 73 358 7.0 13.0 0.00 0.09 0.00 58 1013.9
20260502193003 73 1 6.0 13.0 0.00 0.09 0.00 58 1013.8
20260502192903 73 357 6.0 13.0 0.00 0.09 0.00 59 1013.9
20260502192802 72 345 8.0 13.0 0.00 0.09 0.00 56 1013.9
20260502192704 72 330 8.0 13.0 0.00 0.09 0.00 56 1013.9
20260502192603 72 7 7.0 10.0 0.00 0.09 0.00 56 1013.9
20260502192503 72 18 7.0 10.0 0.00 0.09 0.00 55 1013.9
20260502192403 72 347 8.0 11.0 0.00 0.09 0.00 56 1013.9
20260502192305 72 324 7.0 12.0 0.00 0.09 0.00 55 1013.8
20260502192203 72 324 7.0 12.0 0.00 0.09 0.00 55 1013.8
20260502192103 72 320 6.0 12.0 0.00 0.09 0.00 55 1013.8
20260502192002 72 31 6.0 12.0 0.00 0.09 0.00 58 1013.7
20260502191905 72 6 6.0 13.0 0.00 0.09 0.00 58 1013.9
20260502191803 71 312 6.0 17.0 0.00 0.09 0.00 56 1013.9
20260502191704 71 309 6.0 17.0 0.00 0.09 0.00 56 1013.8
20260502191602 71 305 7.0 17.0 0.00 0.09 0.00 56 1013.9
20260502191504 71 296 9.0 17.0 0.00 0.09 0.00 55 1013.9
20260502191402 72 330 9.0 17.0 0.00 0.09 0.00 58 1014.0
20260502191302 72 354 8.0 17.0 0.00 0.09 0.00 58 1014.0
20260502191202 72 344 9.0 17.0 0.00 0.09 0.00 58 1014.1
20260502191102 72 354 10.0 17.0 0.00 0.10 0.00 58 1014.1
20260502191004 72 324 11.0 17.0 0.00 0.10 0.00 56 1014.2
20260502190904 72 16 11.0 17.0 0.00 0.10 0.00 58 1014.1
20260502190803 72 0 10.0 13.0 0.00 0.10 0.00 59 1014.1
20260502190703 72 321 10.0 13.0 0.00 0.10 0.00 59 1014.1
20260502190604 72 350 9.0 15.0 0.00 0.10 0.00 60 1014.1
20260502190503 72 3 6.0 15.0 0.00 0.10 0.00 57 1014.1
20260502190401 72 345 5.0 15.0 0.00 0.10 0.00 57 1014.1
20260502190302 72 0 6.0 15.0 0.00 0.10 0.00 56 1014.1
20260502190204 71 0 5.0 15.0 0.00 0.10 0.00 60 1014.2
20260502190005 71 23 7.0 15.0 0.00 0.10 0.00 58 1014.2
20260502185903 71 20 9.0 15.0 0.00 0.10 0.00 58 1014.3
20260502185802 71 0 10.0 15.0 0.00 0.10 0.00 58 1014.3
20260502185703 71 0 9.0 15.0 0.00 0.10 0.00 58 1014.2
20260502185602 71 316 7.0 14.0 0.00 0.10 0.00 59 1014.3
20260502185504 71 350 9.0 14.0 0.00 0.10 0.00 58 1014.3
20260502185403 71 348 9.0 12.0 0.00 0.10 0.00 59 1014.3
20260502185305 71 347 9.0 12.0 0.00 0.10 0.00 59 1014.3
20260502185201 72 347 7.0 12.0 0.00 0.10 0.00 59 1014.3
20260502185102 71 0 4.0 11.0 0.00 0.10 0.00 59 1014.3
20260502185003 72 316 3.0 12.0 0.00 0.10 0.00 59 1014.3
20260502184904 71 39 3.0 12.0 0.00 0.10 0.00 59 1014.2
20260502184803 71 39 4.0 12.0 0.00 0.10 0.00 59 1014.2
20260502184701 71 7 4.0 12.0 0.00 0.10 0.00 59 1014.2
20260502184603 71 0 6.0 12.0 0.00 0.10 0.00 59 1014.2
20260502184502 71 343 7.0 12.0 0.00 0.10 0.00 59 1014.2
20260502184402 71 6 8.0 13.0 0.00 0.10 0.00 62 1014.2
20260502184303 71 0 6.0 13.0 0.00 0.10 0.00 58 1014.1
20260502184203 71 326 9.0 13.0 0.00 0.10 0.00 58 1014.2
20260502184102 71 343 9.0 13.0 0.00 0.11 0.00 58 1014.3
20260502184004 71 23 8.0 13.0 0.00 0.11 0.00 59 1014.2
20260502183904 71 6 7.0 13.0 0.00 0.11 0.00 59 1014.2
20260502183803 71 42 7.0 15.0 0.00 0.11 0.00 61 1014.2
20260502183702 71 353 7.0 15.0 0.00 0.11 0.00 59 1014.3
20260502183601 71 343 9.0 15.0 0.00 0.11 0.00 59 1014.3
20260502183503 71 338 9.0 15.0 0.00 0.11 0.00 60 1014.3
20260502183402 71 17 7.0 15.0 0.00 0.11 0.00 61 1014.4
20260502183302 70 343 6.0 15.0 0.00 0.11 0.00 61 1014.4
20260502183202 70 0 6.0 15.0 0.00 0.11 0.00 58 1014.4
20260502183102 70 0 9.0 18.0 0.00 0.11 0.00 59 1014.5
20260502183001 70 348 11.0 18.0 0.00 0.11 0.00 58 1014.4
20260502182903 70 329 10.0 18.0 0.00 0.11 0.00 60 1014.5
20260502182803 71 331 6.0 18.0 0.00 0.11 0.00 60 1014.4
20260502182703 70 355 5.0 18.0 0.00 0.11 0.00 59 1014.5
20260502182603 71 0 6.0 18.0 0.00 0.11 0.00 59 1014.6
20260502182503 71 336 6.0 18.0 0.00 0.11 0.00 61 1014.6
20260502182403 71 10 9.0 18.0 0.00 0.11 0.00 61 1014.7
20260502182304 71 341 13.0 18.0 0.00 0.11 0.00 60 1014.6
20260502182203 71 343 14.0 18.0 0.00 0.11 0.00 60 1014.5
20260502182103 71 351 12.0 16.0 0.00 0.11 0.00 60 1014.6
20260502182004 71 343 9.0 16.0 0.00 0.11 0.00 60 1014.6
20260502181903 71 343 10.0 16.0 0.00 0.11 0.00 60 1014.6
20260502181803 71 358 10.0 16.0 0.00 0.11 0.00 60 1014.6
20260502181702 71 330 8.0 14.0 0.00 0.11 0.00 61 1014.6
20260502181603 70 354 8.0 14.0 0.00 0.11 0.00 59 1014.5
20260502181503 70 6 8.0 15.0 0.00 0.11 0.00 61 1014.6
20260502181402 70 3 7.0 15.0 0.00 0.11 0.00 59 1014.6
20260502181303 70 347 7.0 15.0 0.00 0.11 0.00 60 1014.6
20260502181203 70 0 9.0 15.0 0.00 0.11 0.00 60 1014.6
20260502181104 70 331 9.0 15.0 0.00 0.11 0.00 60 1014.6
20260502181005 70 337 9.0 15.0 0.00 0.11 0.00 58 1014.6
20260502180903 70 0 10.0 15.0 0.00 0.11 0.00 58 1014.6
20260502180803 70 354 11.0 15.0 0.00 0.11 0.00 60 1014.7
20260502180702 70 353 11.0 15.0 0.00 0.11 0.00 60 1014.7
20260502180602 70 0 9.0 15.0 0.00 0.11 0.00 61 1014.7
20260502180504 70 344 7.0 13.0 0.00 0.11 0.00 59 1014.7
20260502180404 70 0 9.0 13.0 0.00 0.11 0.00 59 1014.7
20260502180302 70 338 9.0 13.0 0.00 0.12 0.00 61 1014.9
20260502180203 70 23 7.0 15.0 0.00 0.12 0.00 61 1014.7
20260502170504 69 329 10.0 17.0 0.00 0.13 0.00 59 1015.0
20260502170403 69 0 9.0 15.0 0.00 0.13 0.00 61 1015.1
20260502170303 69 0 6.0 15.0 0.00 0.13 0.00 61 1015.1
20260502170202 69 355 8.0 15.0 0.00 0.13 0.00 60 1015.1
20260502170103 69 344 11.0 15.0 0.00 0.13 0.00 59 1015.2
20260502164303 68 357 6.0 15.0 0.00 0.14 0.00 64 1015.2
20260502164203 68 343 9.0 15.0 0.00 0.14 0.00 64 1015.2
20260502164102 68 1 9.0 15.0 0.00 0.14 0.00 63 1015.2
20260502164003 68 344 9.0 15.0 0.00 0.14 0.00 64 1015.2
20260502163902 68 350 9.0 15.0 0.00 0.14 0.00 65 1015.1
20260502163804 68 1 6.0 15.0 0.00 0.14 0.00 64 1015.1
20260502163704 68 47 8.0 14.0 0.00 0.14 0.00 64 1015.1
20260502163604 68 1 10.0 14.0 0.00 0.14 0.00 66 1015.3
20260502163503 68 17 9.0 14.0 0.00 0.14 0.00 66 1015.1
20260502163401 68 3 8.0 14.0 0.00 0.14 0.00 67 1015.1
20260502163301 67 13 6.0 14.0 0.00 0.14 0.00 68 1015.1
20260502163203 67 0 8.0 14.0 0.00 0.14 0.00 68 1015.0
20260502163104 67 4 11.0 14.0 0.00 0.14 0.00 67 1015.1
20260502163005 67 344 8.0 14.0 0.00 0.14 0.00 67 1015.0
20260502162904 67 347 8.0 14.0 0.00 0.14 0.00 67 1015.1
20260502162803 67 353 9.0 14.0 0.00 0.14 0.00 67 1015.1
20260502162703 67 313 9.0 14.0 0.00 0.14 0.00 67 1015.1
20260502162604 67 353 8.0 14.0 0.00 0.14 0.00 66 1015.1
20260502162503 67 47 6.0 14.0 0.00 0.14 0.00 69 1015.3
20260502162402 67 31 6.0 13.0 0.00 0.14 0.00 69 1015.1
20260502162304 67 13 7.0 13.0 0.00 0.14 0.00 69 1015.1
20260502162203 67 28 7.0 13.0 0.00 0.15 0.00 68 1015.2
20260502162103 66 348 9.0 13.0 0.00 0.15 0.00 68 1015.1
20260502162004 67 327 10.0 13.0 0.00 0.15 0.00 69 1015.1
20260502161903 67 338 9.0 13.0 0.00 0.15 0.00 69 1015.1
20260502161802 67 333 8.0 11.0 0.00 0.15 0.00 69 1015.2
20260502161703 66 347 8.0 11.0 0.00 0.15 0.00 69 1015.2
20260502161604 66 6 8.0 11.0 0.00 0.15 0.00 69 1015.2
20260502161503 66 357 6.0 11.0 0.00 0.15 0.00 70 1015.2
20260502161402 66 329 5.0 11.0 0.00 0.15 0.00 69 1015.2
20260502161302 66 338 7.0 14.0 0.00 0.15 0.00 71 1015.3
20260502161203 66 0 9.0 14.0 0.00 0.15 0.00 71 1015.2
20260502161103 66 0 8.0 14.0 0.00 0.15 0.00 71 1015.1
20260502161003 66 323 7.0 14.0 0.00 0.15 0.00 70 1015.1
20260502160903 66 354 7.0 14.0 0.00 0.15 0.00 71 1015.1
20260502160801 66 338 6.0 14.0 0.00 0.15 0.00 71 1015.0
20260502160702 66 8 6.0 14.0 0.00 0.15 0.00 71 1015.0
20260502160604 66 350 7.0 16.0 0.00 0.15 0.00 71 1015.0
20260502160505 66 351 10.0 16.0 0.00 0.15 0.00 71 1014.9
20260502160404 66 341 9.0 16.0 0.00 0.15 0.00 71 1015.0
20260502160302 66 324 8.0 16.0 0.00 0.15 0.00 71 1015.0
20260502160203 66 338 8.0 16.0 0.00 0.15 0.00 71 1014.9
20260502152305 64 16 8.0 16.0 0.00 0.16 0.00 73 1014.8
20260502152204 64 49 8.0 16.0 0.00 0.16 0.00 73 1014.8
20260502152102 64 0 9.0 16.0 0.00 0.16 0.00 73 1014.8
20260502152004 64 0 8.0 16.0 0.00 0.16 0.00 75 1014.7
20260502151903 64 343 7.0 14.0 0.00 0.16 0.00 74 1014.8
20260502151803 64 344 7.0 18.0 0.00 0.16 0.00 73 1014.8
20260502151704 64 0 7.0 18.0 0.00 0.16 0.00 73 1014.8
20260502151602 64 30 7.0 18.0 0.00 0.16 0.00 73 1014.8
20260502151504 63 0 9.0 18.0 0.00 0.16 0.00 73 1014.8
20260502151403 63 1 9.0 18.0 0.00 0.16 0.00 73 1014.9
20260502151302 63 348 10.0 18.0 0.00 0.16 0.00 73 1014.9
20260502151202 63 0 11.0 18.0 0.00 0.16 0.00 73 1014.9
20260502151102 63 23 10.0 18.0 0.00 0.16 0.00 73 1014.8
20260502151002 63 0 12.0 18.0 0.00 0.16 0.00 74 1014.8
20260502150902 63 0 12.0 18.0 0.00 0.16 0.00 74 1014.9
20260502150802 63 0 10.0 15.0 0.00 0.16 0.00 73 1014.8
20260502150702 63 353 8.0 15.0 0.00 0.16 0.00 74 1014.8
20260502150604 63 351 9.0 15.0 0.00 0.16 0.00 74 1014.8
20260502150504 63 0 10.0 15.0 0.00 0.16 0.00 74 1014.8
20260502150402 63 4 9.0 15.0 0.00 0.16 0.00 75 1014.9
20260502150301 63 0 7.0 12.0 0.00 0.16 0.00 75 1014.8
20260502150202 63 18 7.0 12.0 0.00 0.16 0.00 74 1014.7
20260502130710 55 344 6.0 12.0 0.00 0.21 0.00 89 1013.9
20260502130610 55 337 6.0 12.0 0.00 0.21 0.00 89 1013.8
20260502130509 55 347 7.0 12.0 0.00 0.21 0.00 89 1013.7
20260502130406 55 306 8.0 12.0 0.00 0.21 0.00 89 1013.7
20260502130304 55 345 8.0 10.0 0.00 0.21 0.00 90 1013.8
20260502130203 55 321 6.0 10.0 0.00 0.21 0.00 90 1013.7
20260502123802 53 333 5.0 11.0 0.00 0.23 0.00 90 1013.1
20260502123704 53 341 6.0 11.0 0.00 0.23 0.00 90 1013.1
20260502123603 53 317 6.0 11.0 0.00 0.23 0.00 90 1013.2
20260502123503 53 333 7.0 11.0 0.00 0.23 0.00 90 1013.1
20260502123404 53 327 7.0 11.0 0.00 0.23 0.00 90 1013.1
20260502123302 53 336 8.0 11.0 0.00 0.23 0.00 90 1013.1
20260502123204 53 337 8.0 11.0 0.00 0.23 0.00 90 1013.0
20260502123102 53 341 8.0 11.0 0.00 0.23 0.00 90 1013.1
20260502123004 53 327 6.0 10.0 0.00 0.23 0.00 90 1013.1
20260502122902 53 338 6.0 9.0 0.00 0.23 0.00 90 1013.1
20260502122802 53 329 6.0 9.0 0.00 0.23 0.00 90 1013.0
20260502122704 53 337 6.0 10.0 0.00 0.23 0.00 90 1013.2
20260502122602 53 312 6.0 10.0 0.00 0.23 0.00 90 1013.1
20260502122505 53 340 7.0 10.0 0.00 0.23 0.00 90 1013.1
20260502122401 53 340 6.0 10.0 0.00 0.23 0.00 90 1013.1
20260502122305 53 329 5.0 10.0 0.00 0.23 0.00 90 1013.1
20260502122204 53 324 6.0 10.0 0.00 0.23 0.00 90 1013.0
20260502122102 53 336 5.0 10.0 0.00 0.23 0.00 90 1013.0
20260502122004 53 341 5.0 10.0 0.00 0.23 0.00 90 1013.0
20260502121904 53 337 7.0 10.0 0.00 0.23 0.00 90 1012.9
20260502121803 53 323 7.0 10.0 0.00 0.23 0.00 90 1013.0
20260502121704 53 336 6.0 10.0 0.00 0.23 0.00 90 1012.9
20260502121603 53 306 6.0 10.0 0.00 0.23 0.00 90 1012.9
20260502121502 53 347 5.0 7.0 0.00 0.23 0.00 90 1013.0
20260502121404 53 309 4.0 7.0 0.00 0.23 0.00 90 1013.0
20260502121304 53 341 4.0 7.0 0.00 0.23 0.00 90 1012.9
20260502121205 53 323 4.0 7.0 0.00 0.23 0.00 90 1012.9
20260502121104 53 326 4.0 7.0 0.00 0.23 0.00 90 1012.9
20260502121005 53 320 4.0 7.0 0.00 0.23 0.00 90 1013.0
20260502120904 53 323 5.0 7.0 0.00 0.23 0.00 90 1013.0
20260502120803 53 323 6.0 7.0 0.00 0.23 0.00 90 1013.0
20260502120702 53 326 5.0 7.0 0.00 0.23 0.00 90 1013.0
20260502120602 53 330 4.0 7.0 0.00 0.23 0.00 90 1013.0
20260502120503 53 345 5.0 7.0 0.00 0.23 0.00 90 1013.0
20260502120403 53 324 5.0 7.0 0.00 0.23 0.00 90 1013.1
20260502120302 53 347 4.0 6.0 0.00 0.23 0.00 90 1013.0
20260502120202 53 316 4.0 5.0 0.00 0.23 0.00 90 1013.0
20260502115903 53 317 4.0 5.0 0.00 0.23 0.00 90 1013.1
20260502115802 53 329 3.0 5.0 0.00 0.23 0.00 90 1013.1
20260502115702 53 327 4.0 5.0 0.00 0.23 0.00 90 1012.9
20260502115602 53 330 4.0 5.0 0.00 0.23 0.00 90 1013.1
20260502115504 53 309 3.0 5.0 0.00 0.23 0.00 90 1013.0
20260502115403 53 310 3.0 5.0 0.00 0.24 0.00 90 1012.9
20260502115306 53 310 4.0 5.0 0.00 0.24 0.00 90 1012.8
20260502115202 53 313 4.0 5.0 0.00 0.24 0.00 90 1012.8
20260502115103 53 314 4.0 4.0 0.00 0.24 0.00 90 1012.8
20260502115002 53 331 3.0 4.0 0.00 0.24 0.00 90 1012.8
20260502114903 53 331 2.0 4.0 0.00 0.24 0.00 90 1012.7
20260502114803 53 331 3.0 5.0 0.00 0.24 0.00 90 1012.7
20260502114701 53 333 3.0 5.0 0.00 0.24 0.00 90 1012.7
20260502114603 53 314 3.0 5.0 0.00 0.24 0.00 90 1012.6
20260502114502 53 338 2.0 5.0 0.00 0.24 0.00 90 1012.6
20260502114402 53 338 2.0 5.0 0.00 0.24 0.00 90 1012.6
20260502114302 53 338 3.0 5.0 0.00 0.24 0.00 90 1012.6
20260502114202 53 340 4.0 6.0 0.00 0.24 0.00 90 1012.5
20260502114102 53 340 4.0 6.0 0.00 0.24 0.00 90 1012.6
20260502114003 53 347 4.0 6.0 0.00 0.24 0.00 90 1012.6
20260502113903 53 354 3.0 6.0 0.00 0.24 0.00 90 1012.5
20260502113803 53 338 3.0 6.0 0.00 0.24 0.00 90 1012.5
20260502113703 53 341 3.0 6.0 0.00 0.25 0.00 90 1012.5
20260502113602 53 344 3.0 6.0 0.00 0.25 0.00 90 1012.5
20260502113505 53 344 4.0 6.0 0.00 0.25 0.00 90 1012.5
20260502113403 53 344 4.0 6.0 0.00 0.25 0.00 90 1012.5
20260502113302 53 326 4.0 6.0 0.00 0.25 0.00 90 1012.6
20260502113202 53 344 4.0 6.0 0.00 0.25 0.00 90 1012.5
20260502113104 53 334 4.0 6.0 0.00 0.25 0.00 90 1012.6
20260502113003 53 0 4.0 6.0 0.00 0.25 0.00 89 1012.5
20260502112904 53 358 3.0 6.0 0.00 0.25 0.00 89 1012.5
20260502112803 53 337 3.0 6.0 0.00 0.25 0.00 89 1012.4
20260502112701 53 347 4.0 6.0 0.00 0.25 0.00 89 1012.6
20260502112604 53 358 4.0 6.0 0.00 0.25 0.00 89 1012.4
20260502112502 53 324 4.0 6.0 0.00 0.25 0.00 89 1012.5
20260502112402 53 351 5.0 9.0 0.00 0.25 0.00 89 1012.5
20260502112305 53 344 4.0 9.0 0.00 0.25 0.00 89 1012.4
20260502112204 53 353 3.0 9.0 0.00 0.25 0.00 89 1012.4
20260502112103 53 354 3.0 9.0 0.00 0.25 0.00 89 1012.4
20260502112003 53 351 4.0 9.0 0.00 0.25 0.00 89 1012.3
20260502111903 53 354 4.0 9.0 0.00 0.25 0.00 89 1012.4
20260502111802 53 348 4.0 9.0 0.00 0.25 0.00 89 1012.3
20260502111703 53 354 4.0 9.0 0.00 0.25 0.00 89 1012.3
20260502111602 53 340 6.0 9.0 0.00 0.25 0.00 89 1012.4
20260502111504 53 351 6.0 9.0 0.00 0.25 0.00 89 1012.3
20260502111404 53 353 5.0 9.0 0.00 0.25 0.00 89 1012.4
20260502111302 53 344 5.0 9.0 0.00 0.25 0.00 89 1012.3
20260502111203 53 333 5.0 9.0 0.00 0.25 0.00 89 1012.4
20260502111102 53 305 6.0 10.0 0.00 0.25 0.00 89 1012.5
20260502111003 53 329 5.0 10.0 0.00 0.25 0.00 89 1012.4
20260502110903 53 329 4.0 10.0 0.00 0.25 0.00 89 1012.4
20260502110804 53 331 6.0 10.0 0.00 0.25 0.00 89 1012.4
20260502110704 53 347 7.0 10.0 0.00 0.25 0.00 89 1012.4
20260502110602 53 0 7.0 10.0 0.00 0.25 0.00 89 1012.3
20260502110504 53 336 6.0 10.0 0.00 0.25 0.00 89 1012.4
20260502110403 53 329 6.0 10.0 0.00 0.25 0.00 89 1012.3
20260502110303 53 340 6.0 10.0 0.00 0.25 0.00 89 1012.3
20260502110203 53 336 6.0 10.0 0.00 0.25 0.00 89 1012.3
20260502110103 53 344 5.0 9.0 0.00 0.25 0.00 88 1012.2
20260502110003 53 348 6.0 9.0 0.00 0.25 0.00 88 1012.2
20260502105902 53 340 6.0 9.0 0.00 0.26 0.00 88 1012.1
20260502105804 53 336 6.0 9.0 0.00 0.26 0.00 88 1012.1
20260502105703 53 344 6.0 9.0 0.00 0.26 0.00 88 1012.1
20260502105602 54 331 6.0 9.0 0.00 0.26 0.00 88 1012.1
20260502105504 54 330 5.0 9.0 0.00 0.26 0.00 88 1012.1
20260502105403 54 331 4.0 9.0 0.00 0.26 0.00 88 1012.1
20260502105305 54 329 5.0 9.0 0.00 0.26 0.00 88 1012.1
20260502105203 54 316 5.0 9.0 0.00 0.26 0.00 88 1012.1
20260502105103 54 299 6.0 9.0 0.00 0.26 0.00 88 1012.0
20260502105003 54 319 6.0 9.0 0.00 0.26 0.00 88 1012.1
20260502104903 54 326 6.0 9.0 0.00 0.26 0.00 88 1012.1
20260502104803 54 319 7.0 9.0 0.00 0.26 0.00 88 1012.1
20260502104703 54 347 6.0 9.0 0.00 0.26 0.00 88 1012.1
20260502104603 54 313 6.0 9.0 0.00 0.26 0.00 88 1012.1
20260502104503 54 319 5.0 9.0 0.00 0.27 0.00 87 1012.1
20260502104402 54 343 5.0 9.0 0.00 0.27 0.00 87 1012.1
20260502104303 54 351 5.0 9.0 0.00 0.27 0.00 87 1012.1
20260502104203 54 337 6.0 9.0 0.00 0.27 0.00 88 1012.1
20260502104102 54 345 6.0 9.0 0.00 0.27 0.00 87 1012.1
20260502104004 54 319 5.0 9.0 0.00 0.27 0.00 87 1012.1
20260502103901 54 334 5.0 9.0 0.00 0.27 0.00 87 1012.1
20260502103803 54 329 6.0 9.0 0.00 0.27 0.00 87 1012.1
20260502103703 54 347 6.0 9.0 0.00 0.27 0.00 87 1012.0
20260502103603 54 345 6.0 9.0 0.00 0.27 0.00 87 1012.0
20260502103502 54 334 5.0 7.0 0.00 0.27 0.00 87 1012.0
20260502103403 54 333 4.0 9.0 0.00 0.27 0.00 87 1012.0
20260502103303 54 345 4.0 9.0 0.00 0.27 0.00 87 1011.9
20260502103203 54 348 4.0 9.0 0.00 0.27 0.00 87 1011.9
20260502103104 54 351 5.0 9.0 0.00 0.27 0.00 87 1011.9
20260502103003 54 345 6.0 9.0 0.00 0.27 0.00 87 1011.9
20260502102903 54 345 6.0 10.0 0.00 0.27 0.00 87 1011.9
20260502102804 54 0 6.0 10.0 0.00 0.27 0.00 87 1011.9
20260502102702 54 353 5.0 10.0 0.00 0.27 0.00 87 1011.8
20260502102602 54 354 5.0 10.0 0.00 0.27 0.00 87 1011.8
20260502102503 54 0 5.0 10.0 0.00 0.27 0.00 87 1011.8
20260502102403 54 0 6.0 10.0 0.00 0.27 0.00 87 1011.9
20260502102306 54 354 7.0 10.0 0.00 0.27 0.00 87 1011.8
20260502102204 54 333 6.0 10.0 0.00 0.27 0.00 87 1011.9
20260502102103 54 340 6.0 10.0 0.00 0.27 0.00 87 1011.9
20260502102004 54 355 6.0 10.0 0.00 0.27 0.00 87 1011.9
20260502101904 54 0 6.0 10.0 0.00 0.27 0.00 87 1011.9
20260502101802 54 347 6.0 10.0 0.00 0.27 0.00 87 1011.8
20260502101704 54 355 6.0 10.0 0.00 0.27 0.00 87 1011.8
20260502101603 54 354 6.0 10.0 0.00 0.27 0.00 87 1011.8
20260502101502 54 340 5.0 10.0 0.00 0.28 0.00 87 1011.8
20260502101354 54 3 6.0 10.0 0.00 0.28 0.00 87 1011.7
20260502101252 54 351 6.0 10.0 0.00 0.28 0.00 87 1011.7
20260502101148 54 337 5.0 10.0 0.00 0.28 0.00 87 1011.7
20260502101049 54 357 5.0 10.0 0.00 0.28 0.00 87 1011.7
20260502100947 54 350 5.0 7.0 0.00 0.28 0.00 87 1011.7
20260502100845 54 345 4.0 7.0 0.00 0.28 0.00 87 1011.6
20260502100742 54 0 4.0 7.0 0.00 0.28 0.00 87 1011.7
20260502100638 55 11 4.0 7.0 0.00 0.28 0.00 87 1011.6
20260502100532 55 348 5.0 7.0 0.00 0.28 0.00 87 1011.6
20260502100430 55 0 5.0 7.0 0.00 0.28 0.00 87 1011.5
20260502100332 55 345 5.0 7.0 0.00 0.28 0.00 87 1011.5
20260502100231 55 7 5.0 7.0 0.00 0.29 0.00 87 1011.5
20260502100130 55 338 5.0 7.0 0.00 0.29 0.00 87 1011.5
20260502091527 55 13 5.0 11.0 0.00 0.32 0.00 85 1010.6
20260502091428 55 354 4.0 11.0 0.00 0.32 0.00 85 1010.5
20260502091328 55 21 4.0 11.0 0.00 0.32 0.00 85 1010.6
20260502091226 55 23 4.0 11.0 0.00 0.32 0.00 85 1010.5
20260502091128 55 21 5.0 11.0 0.00 0.32 0.00 85 1010.5
20260502091027 55 21 6.0 11.0 0.00 0.32 0.00 85 1010.4
20260502090926 56 8 6.0 11.0 0.00 0.32 0.00 85 1010.4
20260502090827 55 42 5.0 11.0 0.00 0.32 0.00 85 1010.5
20260502090726 55 13 4.0 9.0 0.00 0.33 0.00 85 1010.4
20260502090628 56 10 5.0 9.0 0.00 0.33 0.00 85 1010.5
20260502090528 56 24 5.0 9.0 0.00 0.33 0.00 85 1010.4
20260502090428 56 0 4.0 7.0 0.00 0.33 0.00 85 1010.5
20260502090328 56 0 5.0 7.0 0.00 0.33 0.00 85 1010.4
20260502090226 56 39 5.0 7.0 0.00 0.33 0.00 85 1010.4
20260502090127 56 17 4.0 7.0 0.00 0.33 0.00 85 1010.4
20260502080103 56 11 7.0 12.0 0.00 0.38 0.00 87 1010.1
20260502071533 56 0 6.0 14.0 0.00 0.41 0.00 88 1010.2
20260502071432 56 324 6.0 14.0 0.00 0.41 0.00 88 1010.2
20260502071332 56 27 6.0 14.0 0.00 0.41 0.00 88 1010.1
20260502071231 56 51 5.0 14.0 0.00 0.41 0.00 88 1010.1
20260502071132 56 38 5.0 14.0 0.00 0.41 0.00 88 1010.1
20260502071033 56 0 7.0 14.0 0.00 0.41 0.00 88 1010.2
20260502070931 56 14 8.0 14.0 0.00 0.41 0.00 88 1010.2
20260502070832 56 0 7.0 14.0 0.00 0.41 0.00 88 1010.2
20260502070732 56 25 5.0 11.0 0.00 0.41 0.00 89 1010.3
20260502070631 56 0 6.0 11.0 0.00 0.41 0.00 88 1010.3
20260502070532 56 20 7.0 11.0 0.00 0.41 0.00 88 1010.3
20260502070431 56 25 9.0 11.0 0.00 0.41 0.00 89 1010.3
20260502070331 56 4 7.0 12.0 0.00 0.41 0.00 89 1010.3
20260502070232 56 16 7.0 12.0 0.00 0.41 0.00 89 1010.4
20260502070132 56 16 7.0 12.0 0.00 0.41 0.00 89 1010.4
20260502070026 56 16 7.0 12.0 0.00 0.41 0.00 89 1010.4
20260502065923 56 0 6.0 12.0 0.00 0.41 0.00 89 1010.5
20260502065823 56 0 6.0 12.0 0.00 0.41 0.00 89 1010.5
20260502065723 56 10 7.0 12.0 0.00 0.41 0.00 89 1010.6
20260502065625 56 350 8.0 12.0 0.00 0.41 0.00 89 1010.6
20260502065523 56 348 7.0 12.0 0.00 0.41 0.00 89 1010.5
20260502065425 56 3 5.0 11.0 0.00 0.41 0.00 89 1010.5
20260502065323 56 0 6.0 11.0 0.00 0.41 0.00 89 1010.5
20260502065223 56 14 5.0 11.0 0.00 0.41 0.00 89 1010.5
20260502065123 56 0 4.0 11.0 0.00 0.41 0.00 89 1010.4
20260502065023 56 354 3.0 11.0 0.00 0.41 0.00 89 1010.3
20260502064924 56 35 4.0 11.0 0.00 0.41 0.00 89 1010.3
20260502064825 56 3 5.0 11.0 0.00 0.41 0.00 88 1010.4
20260502064723 56 0 5.0 11.0 0.00 0.41 0.00 88 1010.3
20260502064623 56 357 6.0 11.0 0.00 0.41 0.00 89 1010.2
20260502064525 56 355 6.0 11.0 0.00 0.41 0.00 89 1010.3
20260502064425 56 21 5.0 11.0 0.00 0.41 0.00 88 1010.3
20260502064324 56 344 6.0 11.0 0.00 0.41 0.00 88 1010.3
20260502064224 56 0 6.0 11.0 0.00 0.41 0.00 88 1010.4
20260502064124 56 31 5.0 11.0 0.00 0.41 0.00 88 1010.4
20260502064026 56 354 6.0 11.0 0.00 0.41 0.00 88 1010.3
20260502063925 56 0 6.0 11.0 0.00 0.41 0.00 88 1010.4
20260502063824 56 0 6.0 11.0 0.00 0.41 0.00 88 1010.4
20260502063726 56 4 6.0 11.0 0.00 0.41 0.00 88 1010.4
20260502063625 56 345 6.0 11.0 0.00 0.41 0.00 88 1010.4
20260502063524 56 0 6.0 11.0 0.00 0.41 0.00 88 1010.4
20260502063423 56 347 6.0 11.0 0.00 0.41 0.00 88 1010.3
20260502063323 56 0 7.0 11.0 0.00 0.41 0.00 88 1010.3
20260502063224 56 14 7.0 11.0 0.00 0.41 0.00 89 1010.4
20260502063124 56 23 6.0 10.0 0.00 0.41 0.00 88 1010.3
20260502063024 56 345 6.0 10.0 0.00 0.41 0.00 88 1010.3
20260502062925 56 0 6.0 11.0 0.00 0.41 0.00 88 1010.3
20260502062823 56 13 7.0 11.0 0.00 0.41 0.00 89 1010.3
20260502062722 56 0 7.0 11.0 0.00 0.41 0.00 89 1010.3
20260502062623 56 357 7.0 11.0 0.00 0.41 0.00 89 1010.2
20260502062523 56 8 5.0 11.0 0.00 0.41 0.00 89 1010.2
20260502062425 56 7 5.0 13.0 0.00 0.41 0.00 89 1010.3
20260502062325 56 345 6.0 13.0 0.00 0.41 0.00 89 1010.3
20260502062223 56 0 6.0 13.0 0.00 0.41 0.00 89 1010.3
20260502062123 56 7 8.0 13.0 0.00 0.41 0.00 88 1010.2
20260502062024 56 353 8.0 13.0 0.00 0.41 0.00 89 1010.1
20260502061922 56 14 7.0 13.0 0.00 0.41 0.00 89 1010.2
20260502061823 56 354 7.0 13.0 0.00 0.41 0.00 89 1010.2
20260502061723 56 31 8.0 15.0 0.00 0.41 0.00 89 1010.1
20260502061624 56 0 8.0 15.0 0.00 0.41 0.00 89 1010.2
20260502061522 56 7 7.0 15.0 0.00 0.41 0.00 89 1010.2
20260502061422 56 6 6.0 15.0 0.00 0.41 0.00 89 1010.1
20260502061322 56 4 7.0 15.0 0.00 0.41 0.00 89 1010.2
20260502061222 56 336 8.0 15.0 0.00 0.41 0.00 89 1010.1
20260502061124 56 0 8.0 15.0 0.00 0.41 0.00 89 1010.2
20260502061024 56 0 8.0 15.0 0.00 0.41 0.00 89 1010.2
20260502060922 56 0 9.0 15.0 0.00 0.41 0.00 89 1010.1
20260502060823 56 351 9.0 15.0 0.00 0.41 0.00 89 1010.1
20260502060722 56 340 7.0 13.0 0.00 0.41 0.00 89 1010.2
20260502060622 56 331 6.0 13.0 0.00 0.41 0.00 89 1010.2
20260502060522 56 0 7.0 13.0 0.00 0.41 0.00 89 1010.2
20260502060423 56 345 6.0 13.0 0.00 0.41 0.00 89 1010.0
20260502060325 56 344 6.0 13.0 0.00 0.41 0.00 89 1010.1
20260502060224 56 0 7.0 13.0 0.00 0.41 0.00 89 1010.1
20260502060123 56 6 8.0 13.0 0.00 0.41 0.00 89 1010.2
20260502060022 56 8 7.0 13.0 0.00 0.41 0.00 89 1010.1
20260502055922 56 72 6.0 13.0 0.00 0.41 0.00 89 1010.1
20260502055822 56 0 6.0 13.0 0.00 0.41 0.00 89 1010.1
20260502055722 56 6 7.0 13.0 0.00 0.41 0.00 89 1010.1
20260502055623 56 0 7.0 13.0 0.00 0.41 0.00 89 1010.2
20260502055523 56 24 6.0 13.0 0.00 0.41 0.00 89 1010.0
20260502055421 56 11 5.0 12.0 0.00 0.41 0.00 89 1010.1
20260502055323 56 341 5.0 12.0 0.00 0.41 0.00 89 1010.1
20260502055224 56 348 5.0 13.0 0.00 0.41 0.00 89 1010.1
20260502055123 56 0 5.0 14.0 0.00 0.41 0.00 89 1010.1
20260502055024 56 344 6.0 15.0 0.00 0.41 0.00 89 1010.0
20260502054922 56 0 6.0 15.0 0.00 0.41 0.00 89 1010.1
20260502054822 56 358 8.0 15.0 0.00 0.41 0.00 89 1010.2
20260502054724 56 350 9.0 15.0 0.00 0.41 0.00 89 1010.1
20260502054621 56 350 8.0 15.0 0.00 0.41 0.00 89 1010.2
20260502054523 56 0 8.0 15.0 0.00 0.41 0.00 89 1010.2
20260502054423 56 0 10.0 15.0 0.00 0.41 0.00 89 1010.2
20260502054323 56 351 11.0 15.0 0.00 0.41 0.00 89 1010.2
20260502054224 56 329 10.0 15.0 0.00 0.41 0.00 89 1010.2
20260502054123 56 8 9.0 15.0 0.00 0.41 0.00 89 1010.2
20260502054024 56 354 9.0 13.0 0.00 0.41 0.00 89 1010.2
20260502053923 56 358 9.0 13.0 0.00 0.41 0.00 89 1010.3
20260502053823 56 0 9.0 14.0 0.00 0.41 0.00 89 1010.2
20260502053722 56 354 8.0 15.0 0.00 0.41 0.00 89 1010.2
20260502053621 56 0 7.0 15.0 0.00 0.41 0.00 89 1010.3
20260502053521 56 0 7.0 15.0 0.00 0.41 0.00 89 1010.2
20260502053423 56 34 7.0 15.0 0.00 0.41 0.00 89 1010.3
20260502053323 56 8 8.0 15.0 0.00 0.41 0.00 89 1010.2
20260502053222 56 326 7.0 15.0 0.00 0.41 0.00 89 1010.2
20260502053122 56 0 7.0 15.0 0.00 0.42 0.00 89 1010.3
20260502053021 56 353 8.0 16.0 0.00 0.42 0.00 89 1010.2
20260502052922 56 34 10.0 16.0 0.00 0.42 0.00 89 1010.1
20260502052822 56 0 10.0 16.0 0.00 0.42 0.00 89 1010.1
20260502052722 56 8 9.0 16.0 0.00 0.42 0.00 89 1010.2
20260502052621 56 20 6.0 16.0 0.00 0.42 0.00 89 1010.1
20260502052521 56 0 5.0 16.0 0.00 0.42 0.00 89 1010.0
20260502052421 56 21 6.0 16.0 0.00 0.42 0.00 89 1010.0
20260502052321 56 358 7.0 16.0 0.00 0.42 0.00 89 1009.9
20260502052223 56 34 9.0 16.0 0.00 0.42 0.00 89 1009.9
20260502052123 56 6 11.0 16.0 0.00 0.42 0.00 89 1010.0
20260502052022 56 4 11.0 16.0 0.00 0.42 0.00 89 1010.0
20260502051923 56 25 10.0 16.0 0.00 0.42 0.00 89 1010.0
20260502051822 56 0 9.0 16.0 0.00 0.42 0.00 89 1010.0
20260502051722 56 357 8.0 16.0 0.00 0.43 0.00 89 1010.0
20260502051621 56 357 8.0 16.0 0.00 0.43 0.00 89 1010.0
20260502051521 56 16 8.0 16.0 0.00 0.43 0.00 90 1009.9
20260502051422 56 0 9.0 16.0 0.00 0.43 0.00 90 1009.9
20260502051322 56 338 9.0 16.0 0.00 0.43 0.00 90 1010.0
20260502051222 56 0 8.0 16.0 0.00 0.43 0.00 90 1010.0
20260502051124 56 351 8.0 16.0 0.00 0.43 0.00 90 1010.0
20260502051021 56 350 8.0 16.0 0.00 0.43 0.00 90 1009.9
20260502050923 56 357 8.0 16.0 0.00 0.43 0.00 90 1009.9
20260502050821 56 0 8.0 16.0 0.00 0.43 0.00 89 1010.1
20260502050721 56 0 10.0 16.0 0.00 0.43 0.00 89 1010.0
20260502050623 56 21 11.0 16.0 0.00 0.43 0.00 90 1010.0
20260502050523 56 0 10.0 14.0 0.00 0.44 0.00 90 1010.1
20260502050422 56 0 11.0 15.0 0.00 0.44 0.00 90 1010.0
20260502050320 56 0 11.0 15.0 0.00 0.44 0.00 90 1010.1
20260502050221 56 0 10.0 15.0 0.00 0.44 0.00 90 1010.0
20260502050123 56 350 8.0 15.0 0.00 0.44 0.00 90 1010.0
20260502050022 56 4 8.0 15.0 0.00 0.44 0.00 90 1010.0
20260502045922 56 344 7.0 17.0 0.00 0.44 0.44 90 1009.9
20260502045822 56 351 6.0 17.0 0.00 0.44 0.44 90 1009.8
20260502045721 56 0 6.0 17.0 0.00 0.44 0.44 90 1009.9
20260502045620 56 0 9.0 17.0 0.00 0.45 0.44 90 1009.8
20260502045522 56 3 10.0 17.0 0.00 0.45 0.44 90 1009.8
20260502045421 56 13 9.0 17.0 0.00 0.45 0.44 90 1009.9
20260502045322 56 27 9.0 17.0 0.00 0.45 0.44 90 1009.8
20260502045220 56 0 10.0 17.0 0.00 0.45 0.44 90 1009.8
20260502045122 56 0 10.0 17.0 0.00 0.45 0.44 90 1009.7
20260502045021 56 14 9.0 17.0 0.00 0.45 0.44 90 1009.7
20260502044921 56 340 10.0 16.0 0.00 0.45 0.44 90 1009.8
20260502044821 56 3 10.0 16.0 0.00 0.45 0.44 90 1009.7
20260502044721 56 6 9.0 16.0 0.00 0.45 0.44 90 1009.9
20260502044622 56 3 10.0 14.0 0.00 0.45 0.44 90 1009.7
20260502044521 56 0 9.0 16.0 0.00 0.45 0.44 90 1009.7
20260502044420 56 32 8.0 16.0 0.00 0.45 0.44 90 1009.6
20260502044321 56 17 9.0 16.0 0.00 0.45 0.44 90 1009.7
20260502044221 56 358 8.0 16.0 0.00 0.45 0.44 90 1009.7
20260502044120 56 23 8.0 16.0 0.00 0.46 0.44 90 1009.6
20260502044020 56 355 8.0 16.0 0.00 0.46 0.44 90 1009.7
20260502043921 56 14 8.0 16.0 0.00 0.46 0.44 90 1009.7
20260502043822 56 7 8.0 16.0 0.00 0.46 0.44 90 1009.7
20260502043722 56 13 12.0 16.0 0.00 0.46 0.44 90 1009.6
20260502043617 56 11 12.0 16.0 0.00 0.46 0.44 90 1009.7
20260502043516 56 1 10.0 15.0 0.00 0.46 0.44 90 1009.6
20260502043411 56 20 9.0 13.0 0.00 0.46 0.44 90 1009.7
20260502043305 56 0 8.0 12.0 0.00 0.46 0.44 90 1009.7
20260502043203 56 354 8.0 12.0 0.00 0.46 0.44 90 1009.6
20260502043103 56 8 7.0 14.0 0.00 0.46 0.44 90 1009.7
20260502043003 56 3 7.0 14.0 0.00 0.46 0.44 90 1009.7
20260502042904 56 4 7.0 14.0 0.00 0.46 0.44 90 1009.7
20260502042804 56 23 7.0 14.0 0.00 0.46 0.44 90 1009.7
20260502042703 56 8 7.0 14.0 0.00 0.46 0.44 90 1009.8
20260502042604 56 357 8.0 14.0 0.00 0.46 0.44 90 1009.8
20260502042503 56 340 8.0 14.0 0.00 0.46 0.44 90 1009.8
20260502042403 56 1 9.0 14.0 0.00 0.46 0.44 90 1009.9
20260502042305 56 31 8.0 14.0 0.00 0.46 0.44 90 1009.9
20260502042201 56 341 7.0 14.0 0.00 0.46 0.44 90 1009.9
20260502042103 56 0 8.0 13.0 0.00 0.46 0.44 90 1009.9
20260502042003 56 0 9.0 13.0 0.00 0.46 0.44 90 1009.8
20260502041903 56 30 9.0 13.0 0.00 0.46 0.44 90 1009.9
20260502041804 56 27 9.0 13.0 0.00 0.46 0.44 90 1009.9
20260502041703 56 0 7.0 14.0 0.00 0.46 0.44 90 1010.0
20260502041605 56 16 7.0 14.0 0.00 0.46 0.44 90 1009.9
20260502041504 56 0 7.0 14.0 0.00 0.46 0.44 90 1009.9
20260502041401 56 1 6.0 14.0 0.00 0.46 0.44 90 1009.8
20260502041304 56 3 7.0 14.0 0.00 0.46 0.44 90 1009.8
20260502041203 56 0 7.0 14.0 0.00 0.46 0.44 90 1009.8
20260502041104 56 0 9.0 14.0 0.00 0.46 0.44 90 1009.9
20260502041002 56 344 9.0 14.0 0.00 0.46 0.44 90 1009.8
20260502040902 56 0 10.0 14.0 0.00 0.46 0.44 90 1009.7
20260502040802 56 350 10.0 14.0 0.00 0.46 0.44 90 1009.7
20260502040704 56 6 8.0 15.0 0.00 0.46 0.44 90 1009.7
20260502040602 56 0 8.0 15.0 0.00 0.46 0.44 90 1009.7
20260502040502 56 355 7.0 16.0 0.00 0.46 0.44 90 1009.7
20260502040403 56 0 8.0 16.0 0.00 0.46 0.44 90 1009.7
20260502040302 56 0 9.0 16.0 0.00 0.46 0.44 90 1009.7
20260502040203 56 327 10.0 16.0 0.00 0.46 0.44 90 1009.6
20260502040004 56 0 10.0 16.0 0.00 0.46 0.44 90 1009.6
20260502035901 56 350 10.0 20.0 0.00 0.46 0.44 90 1009.6
20260502035803 56 355 10.0 20.0 0.00 0.46 0.44 90 1009.6
20260502035703 56 0 10.0 20.0 0.00 0.46 0.44 90 1009.6
20260502035603 56 1 9.0 20.0 0.00 0.46 0.44 90 1009.6
20260502035503 56 354 9.0 20.0 0.00 0.46 0.44 90 1009.6
20260502035402 56 0 10.0 20.0 0.00 0.46 0.44 90 1009.6
20260502035306 56 0 9.0 20.0 0.00 0.46 0.44 90 1009.7
20260502035202 56 0 9.0 20.0 0.00 0.46 0.44 90 1009.6
20260502035104 56 357 11.0 20.0 0.00 0.46 0.44 90 1009.8
20260502035004 56 358 11.0 20.0 0.00 0.46 0.44 90 1009.9
20260502034902 56 0 10.0 18.0 0.00 0.46 0.44 91 1009.8
20260502034803 56 0 9.0 18.0 0.00 0.46 0.44 91 1009.8
20260502034703 56 20 9.0 18.0 0.00 0.46 0.44 91 1009.9
20260502034604 56 17 10.0 18.0 0.00 0.46 0.44 91 1010.0
20260502034505 56 338 11.0 18.0 0.00 0.46 0.44 91 1009.9
20260502034402 56 324 13.0 18.0 0.00 0.46 0.44 91 1009.9
20260502034302 56 0 13.0 18.0 0.00 0.46 0.44 91 1010.0
20260502034202 56 337 11.0 17.0 0.00 0.46 0.44 91 1010.0
20260502034101 56 13 10.0 17.0 0.00 0.46 0.44 91 1009.8
20260502034004 56 334 9.0 17.0 0.00 0.46 0.44 91 1009.9
20260502033903 56 353 9.0 17.0 0.00 0.46 0.44 91 1009.8
20260502033802 56 0 9.0 17.0 0.00 0.46 0.44 91 1009.9
20260502033702 56 14 11.0 17.0 0.00 0.46 0.44 91 1009.8
20260502033604 56 358 12.0 17.0 0.00 0.46 0.44 91 1009.8
20260502033503 56 343 11.0 17.0 0.00 0.46 0.44 91 1009.9
20260502033403 56 0 12.0 17.0 0.00 0.46 0.44 91 1009.8
20260502033302 56 354 12.0 17.0 0.00 0.46 0.44 91 1009.7
20260502033203 56 0 10.0 16.0 0.00 0.46 0.44 91 1009.7
20260502033102 56 7 11.0 16.0 0.00 0.46 0.44 91 1009.7
20260502033004 56 0 11.0 16.0 0.00 0.46 0.44 91 1009.7
20260502032904 56 351 11.0 16.0 0.00 0.46 0.44 91 1009.7
20260502032803 56 355 9.0 16.0 0.00 0.46 0.44 91 1009.6
20260502032702 56 344 8.0 16.0 0.00 0.46 0.44 91 1009.5
20260502032602 56 323 8.0 16.0 0.00 0.46 0.44 91 1009.5
20260502032503 56 350 10.0 16.0 0.00 0.46 0.44 91 1009.5
20260502032402 56 329 11.0 16.0 0.00 0.46 0.44 91 1009.4
20260502032305 56 354 9.0 15.0 0.00 0.46 0.44 91 1009.4
20260502032204 56 330 8.0 15.0 0.00 0.46 0.44 91 1009.3
20260502032104 56 0 9.0 15.0 0.00 0.46 0.44 91 1009.3
20260502032004 56 334 9.0 15.0 0.00 0.46 0.44 91 1009.3
20260502031903 56 1 9.0 15.0 0.00 0.46 0.44 91 1009.3
20260502031802 56 0 10.0 15.0 0.00 0.46 0.44 91 1009.2
20260502031704 56 0 8.0 15.0 0.00 0.46 0.44 91 1009.2
20260502031604 56 0 8.0 15.0 0.00 0.46 0.44 91 1009.3
20260502031504 56 0 10.0 15.0 0.00 0.46 0.44 91 1009.2
20260502031404 56 358 10.0 15.0 0.00 0.46 0.44 91 1009.3
20260502031302 56 345 9.0 15.0 0.00 0.46 0.44 91 1009.4
20260502031202 56 348 8.0 15.0 0.01 0.46 0.44 91 1009.4
20260502031105 56 0 9.0 15.0 0.01 0.46 0.44 91 1009.3
20260502031003 56 358 9.0 15.0 0.01 0.46 0.44 91 1009.4
20260502030904 56 0 8.0 15.0 0.01 0.46 0.44 91 1009.4
20260502030803 56 0 9.0 15.0 0.01 0.46 0.44 91 1009.3
20260502030704 56 351 9.0 15.0 0.01 0.46 0.44 91 1009.3
20260502030603 56 357 6.0 15.0 0.01 0.46 0.44 91 1009.3
20260502030502 56 0 9.0 15.0 0.01 0.46 0.44 91 1009.3
20260502030403 56 0 10.0 15.0 0.01 0.46 0.44 91 1009.2
20260502030304 56 340 10.0 17.0 0.01 0.46 0.44 91 1009.4
20260502030202 56 341 10.0 17.0 0.01 0.46 0.44 91 1009.3
20260502030005 56 0 10.0 17.0 0.01 0.46 0.43 91 1009.1
20260502025902 56 0 9.0 17.0 0.01 0.46 0.44 91 1009.0
20260502025804 56 353 10.0 17.0 0.01 0.46 0.44 91 1009.1
20260502025704 56 350 11.0 17.0 0.01 0.46 0.44 91 1008.9
20260502025603 56 348 9.0 17.0 0.01 0.46 0.44 91 1009.0
20260502025503 56 0 10.0 17.0 0.01 0.46 0.44 91 1008.9
20260502025402 57 7 11.0 17.0 0.01 0.46 0.44 91 1008.9
20260502025306 57 0 9.0 13.0 0.01 0.46 0.44 91 1008.8
20260502025204 57 353 9.0 15.0 0.01 0.46 0.44 91 1008.8
20260502025102 57 0 8.0 15.0 0.01 0.46 0.44 91 1008.8
20260502025004 57 17 7.0 15.0 0.01 0.46 0.44 91 1008.8
20260502024902 57 348 8.0 15.0 0.01 0.46 0.44 91 1008.6
20260502024803 57 0 8.0 15.0 0.01 0.46 0.44 91 1008.8
20260502024702 57 0 8.0 15.0 0.01 0.46 0.44 91 1008.7
20260502024603 57 0 8.0 15.0 0.01 0.46 0.44 91 1008.7
20260502024504 57 0 7.0 15.0 0.01 0.46 0.44 91 1008.6
20260502024402 57 344 10.0 15.0 0.01 0.46 0.44 91 1008.6
20260502024303 57 0 11.0 15.0 0.01 0.46 0.44 91 1008.6
20260502024203 57 0 10.0 14.0 0.01 0.46 0.44 91 1008.6
20260502024103 57 6 10.0 14.0 0.01 0.46 0.44 91 1008.4
20260502024003 57 0 9.0 14.0 0.01 0.46 0.44 92 1008.5
20260502023903 57 343 7.0 14.0 0.01 0.46 0.44 91 1008.4
20260502023804 57 353 7.0 14.0 0.01 0.46 0.44 91 1008.4
20260502023702 57 0 7.0 14.0 0.01 0.46 0.44 91 1008.4
20260502023603 57 344 8.0 14.0 0.01 0.46 0.44 91 1008.4
20260502023503 57 7 9.0 14.0 0.01 0.46 0.44 91 1008.3
20260502023402 57 0 9.0 16.0 0.01 0.46 0.44 91 1008.3
20260502023303 57 351 6.0 16.0 0.01 0.46 0.44 91 1008.3
20260502023202 57 8 7.0 16.0 0.02 0.46 0.44 91 1008.1
20260502023102 57 331 9.0 16.0 0.02 0.46 0.44 91 1008.0
20260502023002 57 0 10.0 16.0 0.02 0.46 0.44 91 1008.0
20260502022903 57 11 8.0 16.0 0.02 0.46 0.44 91 1007.9
20260502022802 57 333 6.0 16.0 0.02 0.46 0.44 91 1007.8
20260502022702 57 350 9.0 17.0 0.02 0.46 0.44 91 1007.8
20260502022602 57 32 11.0 18.0 0.02 0.46 0.44 92 1007.8
20260502022504 57 13 9.0 18.0 0.02 0.46 0.44 91 1007.9
20260502022403 57 0 9.0 18.0 0.02 0.46 0.44 92 1007.8
20260502022306 57 0 11.0 18.0 0.02 0.46 0.44 91 1007.9
20260502022203 57 13 11.0 18.0 0.02 0.46 0.44 91 1007.9
20260502022103 57 0 10.0 18.0 0.02 0.46 0.44 91 1008.0
20260502022003 57 358 10.0 18.0 0.02 0.46 0.44 91 1008.1
20260502021903 57 8 10.0 18.0 0.02 0.46 0.44 91 1008.2
20260502021802 57 1 10.0 18.0 0.02 0.46 0.44 91 1008.3
20260502021702 57 0 10.0 18.0 0.02 0.46 0.44 91 1008.2
20260502021604 57 357 9.0 18.0 0.02 0.46 0.44 91 1008.0
20260502021503 57 44 10.0 18.0 0.02 0.46 0.44 91 1008.0
20260502021404 57 7 11.0 18.0 0.02 0.46 0.44 91 1007.9
20260502021302 57 13 10.0 17.0 0.02 0.45 0.43 91 1008.0
20260502021204 57 0 9.0 17.0 0.01 0.45 0.43 91 1007.9
20260502021102 57 11 11.0 17.0 0.01 0.45 0.43 91 1007.9
20260502021005 57 0 12.0 18.0 0.01 0.45 0.43 91 1008.0
20260502020902 57 13 9.0 18.0 0.01 0.45 0.43 91 1007.8
20260502020804 57 0 8.0 18.0 0.01 0.45 0.43 91 1007.8
20260502020702 57 338 9.0 18.0 0.01 0.45 0.43 91 1007.8
20260502020602 57 21 8.0 18.0 0.01 0.45 0.43 91 1007.8
20260502020504 57 4 9.0 18.0 0.01 0.45 0.43 91 1007.7
20260502020403 57 3 8.0 18.0 0.01 0.45 0.43 91 1007.9
20260502020303 57 333 9.0 18.0 0.02 0.45 0.43 91 1007.8
20260502020203 57 25 11.0 18.0 0.02 0.45 0.43 91 1007.7
20260502020002 57 357 11.0 17.0 0.02 0.45 0.41 92 1007.8
20260502015902 58 0 8.0 17.0 0.02 0.45 0.43 92 1007.8
20260502015804 58 0 9.0 17.0 0.02 0.45 0.43 92 1007.7
20260502015703 58 351 9.0 17.0 0.02 0.45 0.43 92 1007.8
20260502015602 58 7 11.0 17.0 0.02 0.45 0.43 91 1007.8
20260502015504 58 8 11.0 17.0 0.02 0.45 0.43 92 1007.8
20260502015403 58 358 9.0 17.0 0.02 0.45 0.43 92 1007.8
20260502015305 58 8 10.0 17.0 0.02 0.45 0.43 91 1007.7
20260502015203 58 0 10.0 17.0 0.02 0.45 0.43 91 1007.8
20260502015103 58 0 9.0 17.0 0.02 0.45 0.43 91 1007.8
20260502015005 58 23 8.0 17.0 0.02 0.45 0.43 91 1007.8
20260502014903 58 18 9.0 17.0 0.02 0.45 0.43 91 1007.7
20260502014802 58 7 10.0 17.0 0.02 0.45 0.43 91 1007.7
20260502014702 58 0 10.0 17.0 0.02 0.45 0.43 91 1007.7
20260502014604 58 0 9.0 17.0 0.02 0.45 0.43 91 1007.6
20260502014504 58 0 10.0 16.0 0.02 0.45 0.43 91 1007.7
20260502014404 58 0 10.0 16.0 0.02 0.45 0.43 91 1007.7
20260502014303 58 340 9.0 16.0 0.02 0.45 0.43 92 1007.7
20260502014203 58 0 8.0 17.0 0.02 0.45 0.43 91 1007.7
20260502014103 58 350 10.0 17.0 0.02 0.45 0.43 91 1007.7
20260502014003 58 347 11.0 17.0 0.02 0.45 0.43 91 1007.8
20260502013903 58 341 10.0 17.0 0.02 0.45 0.43 91 1007.6
20260502013804 58 0 10.0 17.0 0.02 0.45 0.43 91 1007.7
20260502013703 58 0 9.0 17.0 0.02 0.45 0.43 91 1007.6